Content
SEND FEEDBACK

Daily
Averages
Monthly
Summary
United States of America

CAMP QUEZON, GUAM


Home > North America > United States > Guam
Elevation: 269 feet     Latitude: 13 28N     Longitude: 144 48E

WEATHER
 
SELECT A DAY
Number of Records: 215,513;   Date Range: 1/1/95 - 12/17/14
 
SHARE

PRINT THIS DATA

[ ← Previous Day ]
WEATHER ALMANAC - JANUARY 19, 2014
[ Next Day → ]
[ °C ]   °F
Weather ElementAverageHighLow
Temperature80 °F84.9 °F (10:54 am)75.9 °F (10:54 pm)
Dewpoint71.3 °F73 °F (1:54 am)69.1 °F (1:54 pm)
Humidity75 %88 % (1:54 am)61 % (10:54 am)
Barometer29.84 in29.89 in (8:54 pm)29.79 in (2:54 pm)
Wind Speed5.8 mph8.1 mph (11:54 am)
Weather ElementAverage
Visibility10 mi
Wind DirectionENE (66.5 °)

Weather ElementTotal
Precipitation---
Cooling Degree Days15.4 (Base 65)
Growing Degree Days30.4 (Base 50)
Averaged from 23 records on January 19, 2014
WEATHER CONDITIONS BREAKOUT
WIND DIRECTION BREAKOUT
WEATHER BY HOUR - JANUARY 19, 2014
[ °C ]   °F
Local TimeTemperatureDewpointHumidityBarometerVisibilityWind DirectionWind SpeedGust SpeedPrecipitationEventsConditions
1:54 AM77.0 °F73.0 °F88 %29.83 in10.0 miEast (90°)3.5 mphPartly Cloudy
2:54 AM78.1 °F73.0 °F84 %29.81 in10.0 miEast (80°)4.6 mphClear
3:54 AM77.0 °F72.0 °F84 %29.81 in10.0 miEast (80°)3.5 mphClear
4:54 AM77.0 °F72.0 °F84 %29.82 in10.0 miCalmClear
5:54 AM78.1 °F72.0 °F81 %29.82 in10.0 miENE (70°)5.8 mphClear
6:54 AM77.0 °F71.1 °F82 %29.84 in10.0 miCalmClear
7:54 AM80.1 °F71.1 °F74 %29.86 in10.0 miENE (70°)5.8 mphClear
8:54 AM82.9 °F72.0 °F69 %29.88 in10.0 miNE (50°)5.8 mphPartly Cloudy
9:54 AM84.0 °F71.1 °F65 %29.88 in10.0 miVariable6.9 mphScattered Clouds
10:54 AM84.9 °F70.0 °F61 %29.86 in10.0 miENE (60°)6.9 mphScattered Clouds
11:54 AM84.9 °F71.1 °F63 %29.84 in10.0 miEast (90°)8.1 mphScattered Clouds
12:54 PM84.0 °F71.1 °F65 %29.82 in10.0 miESE (120°)5.8 mphMostly Cloudy
1:54 PM82.9 °F69.1 °F63 %29.80 in10.0 miESE (110°)8.1 mphMostly Cloudy
2:54 PM82.9 °F71.1 °F67 %29.79 in10.0 miESE (120°)6.9 mphMostly Cloudy
3:54 PM82.0 °F71.1 °F69 %29.79 in10.0 miESE (120°)8.1 mphMostly Cloudy
4:54 PM82.0 °F71.1 °F69 %29.81 in10.0 miENE (70°)8.1 mphMostly Cloudy
5:54 PM81.0 °F71.1 °F72 %29.83 in10.0 miENE (70°)8.1 mphClear
6:54 PM80.1 °F71.1 °F74 %29.84 in10.0 miENE (70°)5.8 mphPartly Cloudy
7:54 PM78.1 °F71.1 °F79 %29.88 in10.0 miNE (50°)6.9 mphPartly Cloudy
8:54 PM78.1 °F71.1 °F79 %29.89 in10.0 miNE (50°)6.9 mphClear
9:54 PM77.0 °F71.1 °F82 %29.89 in10.0 miENE (60°)5.8 mphPartly Cloudy
10:54 PM75.9 °F71.1 °F85 %29.88 in10.0 miNE (50°)5.8 mphClear
11:54 PM75.9 °F71.1 °F85 %29.88 in10.0 miNE (50°)5.8 mphClear
Hourly data recorded from PGUM, located miles away from Camp Quezon, Guam







STORIES FROM OUR PARTNERS